DW4129 Weather Reports


time (UTC)temp
C
wind
direction
speed
KPH
gust
KPH
rain 1hr
cm
rain 24hr
cm
rain mn
cm
humidity
%
barometer
mb
20260510231057 23 0 0.0 6.4 0.00 0.00 0.00 49 1014.2
20260510230556 23 0 0.0 6.4 0.00 0.00 0.00 43 1014.2
20260510230054 24 217 1.6 6.4 0.00 0.00 0.00 37 1014.1
20260510225559 25 188 0.0 3.2 0.00 0.00 0.00 45 1014.1
20260510225059 25 236 0.0 3.2 0.00 0.00 0.00 44 1014.2
20260510224553 25 236 0.0 3.2 0.00 0.00 0.00 41 1014.1
20260510224056 25 234 0.0 4.8 0.00 0.00 0.00 37 1014.2
20260510223556 26 246 0.0 4.8 0.00 0.00 0.00 41 1014.2
20260510223056 26 271 3.2 4.8 0.00 0.00 0.00 35 1014.2
20260510222556 26 257 0.0 4.8 0.00 0.00 0.00 38 1014.1
20260510222057 26 277 1.6 3.2 0.00 0.00 0.00 35 1014.2
20260510221557 26 105 1.6 3.2 0.00 0.00 0.00 33 1014.1
20260510221100 26 331 0.0 6.4 0.00 0.00 0.00 39 1014.1
20260510220556 27 201 1.6 6.4 0.00 0.00 0.00 36 1014.2
20260510220059 27 290 0.0 8.0 0.00 0.00 0.00 30 1014.2
20260510215555 27 300 3.2 8.0 0.00 0.00 0.00 34 1014.3
20260510215055 27 215 1.6 8.0 0.00 0.00 0.00 31 1014.3
20260510214557 27 312 3.2 4.8 0.00 0.00 0.00 31 1014.4
20260510214055 27 0 1.6 4.8 0.00 0.00 0.00 33 1014.3
20260510213556 27 239 1.6 4.8 0.00 0.00 0.00 32 1014.3
20260510213101 27 246 1.6 4.8 0.00 0.00 0.00 34 1014.4
20260510212558 27 351 1.6 4.8 0.00 0.00 0.00 33 1014.3
20260510212056 27 187 1.6 4.8 0.00 0.00 0.00 32 1014.3
20260510211559 27 76 1.6 4.8 0.00 0.00 0.00 38 1014.3
20260510211056 27 309 3.2 6.4 0.00 0.00 0.00 30 1014.2
20260510210558 27 180 1.6 8.0 0.00 0.00 0.00 42 1014.2
20260510210059 27 219 3.2 8.0 0.00 0.00 0.00 29 1014.2
20260510205556 27 235 4.8 8.0 0.00 0.00 0.00 31 1014.2
20260510205054 27 300 3.2 9.7 0.00 0.00 0.00 32 1014.2
20260510204604 27 243 3.2 9.7 0.00 0.00 0.00 31 1014.2
20260510204051 27 227 4.8 9.7 0.00 0.00 0.00 33 1014.2
20260510203554 27 201 4.8 9.7 0.00 0.00 0.00 33 1014.3
20260510203059 27 221 3.2 6.4 0.00 0.00 0.00 34 1014.3
20260510202554 27 258 3.2 12.9 0.00 0.00 0.00 33 1014.3
20260510202052 27 254 4.8 12.9 0.00 0.00 0.00 31 1014.3
20260510201556 27 277 3.2 6.4 0.00 0.00 0.00 31 1014.3
20260510201054 27 241 3.2 9.7 0.00 0.00 0.00 29 1014.4
20260510200555 27 140 1.6 9.7 0.00 0.00 0.00 32 1014.4
20260510200056 27 211 3.2 11.3 0.00 0.00 0.00 34 1014.4
20260510195554 27 234 3.2 12.9 0.00 0.00 0.00 31 1014.5
20260510195053 27 317 4.8 12.9 0.00 0.00 0.00 33 1014.5
20260510194552 27 230 3.2 9.7 0.00 0.00 0.00 36 1014.5
20260510194055 27 322 4.8 12.9 0.00 0.00 0.00 33 1014.5
20260510193554 26 27 3.2 12.9 0.00 0.00 0.00 34 1014.5
20260510193052 27 267 3.2 4.8 0.00 0.00 0.00 33 1014.5
20260510192554 27 222 1.6 9.7 0.00 0.00 0.00 36 1014.6
20260510192054 27 9 1.6 9.7 0.00 0.00 0.00 37 1014.6
20260510191600 27 0 4.8 12.9 0.00 0.00 0.00 32 1014.7
20260510191054 26 244 4.8 12.9 0.00 0.00 0.00 34 1014.6
20260510190555 26 273 6.4 12.9 0.00 0.00 0.00 34 1014.6
20260510190058 27 246 4.8 11.3 0.00 0.00 0.00 38 1014.6
20260510185554 26 55 3.2 12.9 0.00 0.00 0.00 38 1014.6
20260510185054 27 132 4.8 12.9 0.00 0.00 0.00 38 1014.7
20260510184552 26 144 4.8 12.9 0.00 0.00 0.00 37 1014.7
20260510184051 27 236 3.2 6.4 0.00 0.00 0.00 38 1014.7
20260510183551 26 58 1.6 12.9 0.00 0.00 0.00 39 1014.9
20260510183053 26 257 4.8 12.9 0.00 0.00 0.00 37 1014.9
20260510182553 26 269 3.2 11.3 0.00 0.00 0.00 40 1014.9
20260510182053 26 308 4.8 11.3 0.00 0.00 0.00 36 1015.0
20260510181553 26 224 4.8 11.3 0.00 0.00 0.00 35 1015.0
20260510181059 26 333 3.2 6.4 0.00 0.00 0.00 37 1015.2
20260510180555 26 119 0.0 11.3 0.00 0.00 0.00 37 1015.1
20260510180059 26 231 3.2 11.3 0.00 0.00 0.00 37 1015.1
20260510175550 26 188 4.8 11.3 0.00 0.00 0.00 37 1015.2
20260510175054 26 126 6.4 11.3 0.00 0.00 0.00 37 1015.1
20260510174602 26 176 3.2 4.8 0.00 0.00 0.00 36 1015.2
20260510174056 26 153 3.2 6.4 0.00 0.00 0.00 39 1015.1
20260510173556 26 19 3.2 6.4 0.00 0.00 0.00 40 1015.3
20260510173111 26 86 3.2 6.4 0.00 0.00 0.00 38 1015.3
20260510172600 26 292 1.6 8.0 0.00 0.00 0.00 36 1015.4
20260510172059 26 106 1.6 8.0 0.00 0.00 0.00 40 1015.5
20260510171556 25 175 3.2 8.0 0.00 0.00 0.00 38 1015.5
20260510171056 26 248 4.8 8.0 0.00 0.00 0.00 37 1015.5
20260510170555 26 275 1.6 4.8 0.00 0.00 0.00 38 1015.5
20260510170056 26 252 0.0 6.4 0.00 0.00 0.00 33 1015.5
20260510165556 26 13 1.6 6.4 0.00 0.00 0.00 37 1015.4
20260510165055 26 273 1.6 6.4 0.00 0.00 0.00 45 1015.5
20260510164612 25 81 3.2 14.5 0.00 0.00 0.00 39 1015.5
20260510164055 25 82 6.4 14.5 0.00 0.00 0.00 40 1015.5
20260510163556 25 38 3.2 11.3 0.00 0.00 0.00 44 1015.5
20260510163104 25 309 4.8 9.7 0.00 0.00 0.00 42 1015.6
20260510162559 25 348 4.8 8.0 0.00 0.00 0.00 42 1015.7
20260510162057 25 167 0.0 6.4 0.00 0.00 0.00 42 1015.8
20260510161558 25 98 3.2 6.4 0.00 0.00 0.00 43 1015.9
20260510161056 25 79 3.2 22.5 0.00 0.00 0.00 43 1015.9
20260510160556 25 286 8.0 19.3 0.00 0.00 0.00 45 1015.9
20260510160057 25 78 3.2 16.1 0.00 0.00 0.00 47 1015.9
20260510155557 25 106 9.7 16.1 0.00 0.00 0.00 43 1015.8
20260510155056 25 79 4.8 11.3 0.00 0.00 0.00 48 1015.8
20260510154556 25 347 4.8 11.3 0.00 0.00 0.00 48 1016.0
20260510154055 24 104 3.2 17.7 0.00 0.00 0.00 47 1015.9
20260510153556 24 82 6.4 17.7 0.00 0.00 0.00 47 1016.0
20260510153057 24 108 3.2 12.9 0.00 0.00 0.00 45 1016.0
20260510152558 24 88 4.8 12.9 0.00 0.00 0.00 47 1016.0
20260510152057 23 135 3.2 8.0 0.00 0.00 0.00 48 1016.0
20260510151603 23 311 3.2 12.9 0.00 0.00 0.00 48 1016.0
20260510151056 23 62 3.2 12.9 0.00 0.00 0.00 48 1016.1
20260510150556 23 119 4.8 8.0 0.00 0.00 0.00 49 1016.1
20260510150103 23 96 1.6 12.9 0.00 0.00 0.00 47 1016.1
20260510145556 23 100 4.8 12.9 0.00 0.00 0.00 49 1016.0
20260510145056 23 236 1.6 6.4 0.00 0.00 0.00 49 1016.1
20260510144610 23 159 3.2 14.5 0.00 0.00 0.00 49 1016.1
20260510144124 23 211 1.6 14.5 0.00 0.00 0.00 54 1016.0
20260510143555 22 69 8.0 12.9 0.00 0.00 0.00 51 1016.0
20260510143058 22 63 3.2 11.3 0.00 0.00 0.00 54 1016.0
20260510142555 22 94 6.4 11.3 0.00 0.00 0.00 52 1016.1
20260510142056 22 323 3.2 6.4 0.00 0.00 0.00 53 1016.0
20260510141553 22 80 1.6 11.3 0.00 0.00 0.00 55 1016.0
20260510141056 22 57 3.2 11.3 0.00 0.00 0.00 60 1015.9
20260510140559 22 105 3.2 6.4 0.00 0.00 0.00 59 1016.0
20260510140053 21 57 1.6 6.4 0.00 0.00 0.00 57 1015.9
20260510135556 21 42 3.2 6.4 0.00 0.00 0.00 62 1016.0
20260510135056 21 293 1.6 6.4 0.00 0.00 0.00 63 1015.9
20260510134556 21 244 1.6 4.8 0.00 0.00 0.00 62 1015.9
20260510134055 21 79 3.2 4.8 0.00 0.00 0.00 63 1015.9
20260510133558 21 43 0.0 4.8 0.00 0.00 0.00 65 1015.9
20260510133101 20 170 1.6 4.8 0.00 0.00 0.00 66 1015.9
20260510132556 20 265 1.6 6.4 0.00 0.00 0.00 67 1015.9
20260510132056 20 35 1.6 6.4 0.00 0.00 0.00 68 1015.9
20260510131558 20 22 1.6 6.4 0.00 0.00 0.00 67 1015.9
20260510131055 20 304 1.6 3.2 0.00 0.00 0.00 68 1015.8
20260510130556 19 327 1.6 3.2 0.00 0.00 0.00 77 1015.8
20260510130056 19 0 0.0 4.8 0.00 0.00 0.00 77 1015.7
20260510125555 18 82 1.6 4.8 0.00 0.00 0.00 73 1015.6
20260510125056 18 9 1.6 4.8 0.00 0.00 0.00 73 1015.5
20260510124557 18 0 0.0 4.8 0.00 0.00 0.00 78 1015.6
20260510124056 18 126 1.6 6.4 0.00 0.00 0.00 81 1015.6
20260510123556 18 5 1.6 6.4 0.00 0.00 0.00 76 1015.5
20260510123057 18 352 1.6 4.8 0.00 0.00 0.00 79 1015.4
20260510122557 17 0 0.0 6.4 0.00 0.00 0.00 85 1015.3
20260510122056 17 333 1.6 6.4 0.00 0.00 0.00 89 1015.2
20260510121557 16 317 0.0 3.2 0.00 0.00 0.00 91 1015.2
20260510121056 16 196 0.0 3.2 0.00 0.00 0.00 92 1015.0
20260510120556 16 0 0.0 3.2 0.00 0.00 0.00 94 1015.0
20260510120059 15 0 0.0 3.2 0.00 0.00 0.00 94 1014.9
20260510115555 15 271 0.0 3.2 0.00 0.00 0.00 95 1014.8
20260510115056 15 0 0.0 3.2 0.00 0.00 0.00 95 1014.8
20260510114605 15 0 0.0 3.2 0.00 0.00 0.00 95 1014.8
20260510114056 14 0 0.0 3.2 0.00 0.00 0.00 95 1014.9
20260510113555 13 271 0.0 1.6 0.00 0.00 0.00 95 1014.7
20260510113058 13 271 0.0 3.2 0.00 0.00 0.00 95 1014.5
20260510112556 13 271 0.0 3.2 0.00 0.00 0.00 95 1014.4
20260510112056 13 0 0.0 3.2 0.00 0.00 0.00 95 1014.4
20260510111555 13 271 0.0 3.2 0.00 0.00 0.00 95 1014.2
20260510111059 13 0 0.0 1.6 0.00 0.00 0.00 95 1014.1
20260510110556 13 0 0.0 3.2 0.00 0.00 0.00 95 1014.0
20260510110056 13 0 0.0 3.2 0.00 0.00 0.00 95 1013.9
20260510105556 13 271 0.0 3.2 0.00 0.00 0.00 95 1013.8
20260510105100 13 0 0.0 0.0 0.00 0.00 0.00 95 1013.7
20260510104608 13 0 0.0 0.0 0.00 0.00 0.00 95 1013.6
20260510104058 13 0 0.0 0.0 0.00 0.00 0.00 95 1013.6
20260510103556 13 0 0.0 0.0 0.00 0.00 0.00 95 1013.6
20260510103100 13 0 0.0 0.0 0.00 0.00 0.00 95 1013.4
20260510102556 13 0 0.0 3.2 0.00 0.00 0.00 95 1013.4
20260510102055 13 0 0.0 3.2 0.00 0.00 0.00 95 1013.3
20260510101556 13 0 0.0 3.2 0.00 0.00 0.00 95 1013.3
20260510101056 13 0 0.0 3.2 0.00 0.00 0.00 95 1013.3
20260510100556 13 0 0.0 3.2 0.00 0.00 0.00 95 1013.3
20260510100058 13 0 0.0 3.2 0.00 0.00 0.00 95 1013.3
20260510095556 13 271 0.0 3.2 0.00 0.00 0.00 95 1013.2
20260510095055 13 0 0.0 3.2 0.00 0.00 0.00 95 1013.3
20260510094553 13 0 0.0 3.2 0.00 0.00 0.00 95 1013.1
20260510094059 13 0 0.0 0.0 0.00 0.00 0.00 95 1013.0
20260510093557 13 0 0.0 0.0 0.00 0.00 0.00 95 1013.1
20260510093057 13 0 0.0 0.0 0.00 0.00 0.00 94 1013.0
20260510092556 13 0 0.0 0.0 0.00 0.00 0.00 94 1012.9
20260510092058 13 0 0.0 0.0 0.00 0.00 0.00 94 1012.8
20260510091554 13 0 0.0 0.0 0.00 0.00 0.00 95 1012.8
20260510091055 13 0 0.0 3.2 0.00 0.00 0.00 94 1012.8
20260510090558 13 0 0.0 3.2 0.00 0.00 0.00 94 1012.7
20260510090059 13 0 0.0 3.2 0.00 0.00 0.00 94 1012.7
20260510085557 13 271 0.0 3.2 0.00 0.00 0.00 94 1012.6
20260510085057 13 271 0.0 3.2 0.00 0.00 0.00 94 1012.6
20260510084600 13 0 0.0 3.2 0.00 0.00 0.00 94 1012.7
20260510084056 13 0 0.0 3.2 0.00 0.00 0.00 94 1012.6
20260510083555 13 0 0.0 3.2 0.00 0.00 0.00 94 1012.5
20260510083102 13 0 0.0 3.2 0.00 0.00 0.00 94 1012.4
20260510082555 13 0 0.0 3.2 0.00 0.00 0.00 94 1012.5
20260510082056 13 271 0.0 3.2 0.00 0.00 0.00 94 1012.4
20260510081556 13 327 0.0 3.2 0.00 0.00 0.00 94 1012.4
20260510081051 13 327 0.0 3.2 0.00 0.00 0.00 94 1012.3
20260510080553 13 327 0.0 3.2 0.00 0.00 0.00 94 1012.2
20260510080059 13 327 0.0 0.0 0.00 0.00 0.00 94 1012.1
20260510075554 13 0 0.0 0.0 0.00 0.00 0.00 94 1012.1
20260510075058 13 0 0.0 3.2 0.00 0.00 0.00 94 1012.2
20260510074625 13 0 0.0 3.2 0.00 0.00 0.00 94 1012.2
20260510074054 13 327 0.0 3.2 0.00 0.00 0.00 94 1012.2
20260510073554 13 10 0.0 0.0 0.00 0.00 0.00 94 1012.1
20260510073056 13 0 0.0 0.0 0.00 0.00 0.00 94 1012.0
20260510072554 13 0 0.0 0.0 0.00 0.00 0.00 94 1011.9
20260510072053 13 0 0.0 3.2 0.00 0.00 0.00 94 1011.9
20260510071602 13 0 0.0 3.2 0.00 0.00 0.00 94 1012.0
20260510071056 13 10 0.0 3.2 0.00 0.00 0.00 94 1012.0
20260510070554 13 0 0.0 3.2 0.00 0.00 0.00 94 1012.0
20260510070058 13 0 0.0 3.2 0.00 0.00 0.00 94 1011.9
20260510065551 13 0 0.0 0.0 0.00 0.00 0.00 94 1012.0
20260510065054 13 0 0.0 3.2 0.00 0.00 0.00 94 1012.0
20260510064612 13 0 0.0 3.2 0.00 0.00 0.00 94 1012.1
20260510064053 13 0 0.0 3.2 0.00 0.00 0.00 94 1012.1
20260510063554 13 10 0.0 1.6 0.00 0.00 0.00 94 1012.0
20260510063102 13 0 0.0 4.8 0.00 0.00 0.00 94 1012.0
20260510062554 13 0 0.0 4.8 0.00 0.00 0.00 94 1012.0
20260510062054 13 290 1.6 4.8 0.00 0.00 0.00 94 1012.0
20260510061604 13 0 0.0 3.2 0.00 0.00 0.00 94 1012.0
20260510061054 13 0 0.0 3.2 0.00 0.00 0.00 94 1011.9
20260510060554 13 0 0.0 3.2 0.00 0.00 0.00 94 1012.0
20260510060059 13 0 0.0 1.6 0.00 0.00 0.00 94 1012.1
20260510055553 14 0 0.0 3.2 0.00 0.00 0.00 94 1012.1
20260510055054 13 0 0.0 3.2 0.00 0.00 0.00 94 1012.2
20260510054554 13 195 0.0 3.2 0.00 0.00 0.00 94 1012.4
20260510054052 13 195 0.0 3.2 0.00 0.00 0.00 94 1012.4
20260510053552 14 0 0.0 3.2 0.00 0.00 0.00 93 1012.5
20260510053053 13 0 0.0 3.2 0.00 0.00 0.00 93 1012.4
20260510052554 14 0 0.0 3.2 0.00 0.00 0.00 93 1012.5
20260510052051 14 0 0.0 3.2 0.00 0.00 0.00 93 1012.4
20260510051601 14 0 0.0 3.2 0.00 0.00 0.00 93 1012.4
20260510051051 14 215 0.0 3.2 0.00 0.00 0.00 93 1012.5
20260510050552 14 0 0.0 3.2 0.00 0.00 0.00 93 1012.5
20260510050114 14 0 0.0 3.2 0.00 0.00 0.00 93 1012.5
20260510045556 14 0 0.0 1.6 0.00 0.00 0.00 93 1012.7
20260510045056 14 0 0.0 1.6 0.00 0.00 0.00 93 1012.5
20260510044556 14 0 0.0 1.6 0.00 0.00 0.00 93 1012.5
20260510044056 14 0 0.0 3.2 0.00 0.00 0.00 93 1012.7
20260510043557 14 0 0.0 3.2 0.00 0.00 0.00 93 1012.5
20260510043102 15 0 0.0 3.2 0.00 0.00 0.00 93 1012.5
20260510042558 15 0 0.0 3.2 0.00 0.00 0.00 92 1012.5
20260510042056 15 215 0.0 3.2 0.00 0.00 0.00 92 1012.5
20260510041609 15 0 0.0 3.2 0.00 0.00 0.00 93 1012.4
20260510041057 15 0 0.0 3.2 0.00 0.00 0.00 92 1012.4
20260510040558 15 0 0.0 3.2 0.00 0.00 0.00 92 1012.5
20260510040056 15 215 0.0 3.2 0.00 0.00 0.00 92 1012.5
20260510035556 15 0 0.0 3.2 0.00 0.00 0.00 92 1012.4
20260510035056 15 0 0.0 3.2 0.00 0.00 0.00 92 1012.6
20260510034554 15 0 0.0 3.2 0.00 0.00 0.00 92 1012.5
20260510034056 15 215 0.0 3.2 0.00 0.00 0.00 92 1012.5
20260510033555 15 0 0.0 3.2 0.00 0.00 0.00 92 1012.5
20260510033056 15 0 0.0 3.2 0.00 0.00 0.00 92 1012.6
20260510032555 15 0 0.0 3.2 0.00 0.00 0.00 92 1012.5
20260510032100 15 215 0.0 3.2 0.00 0.00 0.00 92 1012.5
20260510031559 15 0 0.0 3.2 0.00 0.00 0.00 92 1012.4
20260510031057 15 0 0.0 3.2 0.00 0.00 0.00 92 1012.5
20260510030557 15 215 0.0 3.2 0.00 0.00 0.00 91 1012.5
20260510030058 15 0 0.0 3.2 0.00 0.00 0.00 91 1012.4
20260510025556 15 0 0.0 3.2 0.00 0.00 0.00 91 1012.4
20260510025059 15 0 0.0 3.2 0.00 0.00 0.00 91 1012.4
20260510024601 15 201 0.0 3.2 0.00 0.00 0.00 91 1012.3
20260510024056 15 201 0.0 3.2 0.00 0.00 0.00 91 1012.4
20260510023555 15 0 0.0 1.6 0.00 0.00 0.00 91 1012.4
20260510023054 15 0 0.0 3.2 0.00 0.00 0.00 91 1012.3
20260510022559 15 0 0.0 3.2 0.00 0.00 0.00 91 1012.4
20260510022056 15 0 0.0 3.2 0.00 0.00 0.00 91 1012.4
20260510021557 15 0 0.0 0.0 0.00 0.00 0.00 90 1012.4
20260510021059 15 0 0.0 0.0 0.00 0.00 0.00 90 1012.3
20260510020556 15 0 0.0 3.2 0.00 0.00 0.00 90 1012.3
20260510020057 15 0 0.0 3.2 0.00 0.00 0.00 90 1012.3
20260510015619 16 0 0.0 0.0 0.00 0.00 0.00 90 1012.2
20260510015058 16 0 0.0 0.0 0.00 0.00 0.00 89 1012.2
20260510014554 16 0 0.0 0.0 0.00 0.00 0.00 89 1012.1
20260510014056 16 0 0.0 3.2 0.00 0.00 0.00 89 1011.9
20260510013556 16 0 0.0 3.2 0.00 0.00 0.00 88 1011.8
20260510013105 16 0 0.0 3.2 0.00 0.00 0.00 88 1011.7
20260510012600 16 201 0.0 3.2 0.00 0.00 0.00 88 1011.7
20260510012056 16 0 0.0 3.2 0.00 0.00 0.00 88 1011.5
20260510011553 16 0 0.0 3.2 0.00 0.00 0.00 87 1011.5
20260510011056 16 191 0.0 3.2 0.00 0.00 0.00 87 1011.3
20260510010557 16 191 0.0 3.2 0.00 0.00 0.00 86 1011.2
20260510010104 17 0 0.0 3.2 0.00 0.00 0.00 86 1011.3
20260510005555 17 0 0.0 3.2 0.00 0.00 0.00 85 1011.2
20260510005056 17 0 0.0 3.2 0.00 0.00 0.00 84 1011.1
20260510004603 17 0 0.0 3.2 0.00 0.00 0.00 84 1011.1
20260510004056 17 0 0.0 3.2 0.00 0.00 0.00 83 1011.1
20260510003556 17 191 0.0 3.2 0.00 0.00 0.00 82 1011.1
20260510003057 18 191 0.0 3.2 0.00 0.00 0.00 81 1011.1
20260510002558 18 0 0.0 3.2 0.00 0.00 0.00 81 1011.1
20260510002055 18 246 0.0 3.2 0.00 0.00 0.00 81 1011.0
20260510001554 18 0 0.0 3.2 0.00 0.00 0.00 81 1011.0
20260510001059 18 248 0.0 3.2 0.00 0.00 0.00 80 1010.9
20260510000555 18 258 0.0 3.2 0.00 0.00 0.00 80 1010.9
20260510000108 18 240 1.6 3.2 0.00 0.00 0.00 79 1010.9
20260509235556 18 227 0.0 3.2 0.00 0.00 0.00 78 1010.8
20260509235057 18 232 0.0 3.2 0.00 0.00 0.00 77 1010.8
20260509234605 19 226 0.0 4.8 0.00 0.00 0.00 77 1010.5
20260509234100 20 0 0.0 4.8 0.00 0.00 0.00 74 1010.4
20260509233559 20 225 1.6 6.4 0.00 0.00 0.00 74 1010.4
20260509233056 20 205 1.6 6.4 0.00 0.00 0.00 74 1010.4
20260509232556 20 190 1.6 3.2 0.00 0.00 0.00 73 1010.3
20260509232055 20 229 0.0 4.8 0.00 0.00 0.00 73 1010.3
20260509231555 20 259 1.6 4.8 0.00 0.00 0.00 73 1010.3